GFSCGP_250_spd_102.txt.gz
Wind_Speed
62 64 59 54 56 58 62 67 66 64 62 67 77 91 98 101 113 113 109 107 105 104 102 103 108 117 118 117 114 110 108 109 108 106 104 102 99 97 96 95 93 91 91 93
60 60 51 53 51 52 54 54 54 52 48 50 55 69 93 103 100 109 112 111 110 105 101 102 99 106 114 116 119 118 113 112 112 111 108 104 102 100 99 99 100 101 101 100
57 51 48 51 45 46 47 43 39 39 37 30 33 49 68 88 105 104 105 109 109 110 104 105 103 105 105 110 115 118 117 114 115 114 112 110 109 107 108 107 107 107 106 104
52 50 48 47 42 39 41 32 26 19 9 7 20 29 45 62 83 103 100 103 109 106 107 107 104 104 103 103 106 113 116 116 113 113 113 113 113 111 111 110 109 110 109 109
52 48 45 47 39 36 33 24 17 15 7 4 4 12 21 31 44 67 86 98 106 107 106 107 108 107 107 106 105 105 108 109 111 112 114 113 113 111 111 113 113 115 115 114
50 48 44 45 39 36 30 22 13 12 11 10 14 16 18 24 37 53 75 88 98 104 105 107 107 104 103 108 106 102 100 103 107 109 111 111 112 110 110 112 112 116 116 116
49 47 45 43 42 40 31 23 14 10 13 18 19 20 25 26 31 37 46 66 86 96 102 104 107 108 107 106 104 104 105 104 104 106 107 109 110 111 112 113 113 117 116 118
49 48 47 43 44 40 39 33 23 17 14 21 20 20 27 32 34 36 40 44 54 73 94 96 99 99 103 104 106 106 106 108 106 103 104 104 106 108 110 113 112 115 111 112
51 48 46 45 46 44 39 35 32 25 18 15 17 24 30 32 34 38 39 43 47 49 56 68 80 87 92 92 97 101 101 99 97 94 95 97 98 101 104 104 100 102 103 105
52 49 48 48 48 45 42 38 34 33 26 20 15 17 24 32 34 31 32 35 39 46 52 57 61 64 70 75 78 80 82 84 83 85 87 86 89 91 90 92 93 95 95 96
52 52 50 46 48 47 42 40 37 35 33 29 27 25 26 28 27 26 31 36 42 45 47 53 59 63 66 68 72 74 74 75 78 80 79 84 86 86 87 89 89 89 89 90
52 54 54 52 47 46 45 42 42 39 37 34 32 31 32 32 32 30 29 31 32 34 38 44 50 56 60 66 70 72 74 76 77 77 81 83 82 81 79 77 77 79 81 85
54 54 56 55 51 46 44 43 43 43 42 41 40 43 43 38 35 36 37 38 38 39 42 43 44 47 52 55 59 62 65 68 66 65 69 68 69 70 71 74 77 82 85 88
47 55 54 53 54 54 51 50 47 46 45 50 46 49 48 43 42 39 39 40 42 43 43 45 46 49 51 53 55 56 57 57 60 64 64 66 68 71 75 77 80 83 85 85
46 46 54 57 54 53 54 55 55 55 53 50 51 51 53 49 46 45 46 48 46 44 46 47 47 48 50 55 61 64 64 64 64 65 67 69 72 74 76 78 79 78 75 73
51 49 49 49 53 56 52 51 56 55 53 52 54 53 57 55 54 54 56 56 53 53 52 52 53 56 58 59 61 67 69 70 70 71 73 74 75 74 71 69 66 66 66 71
46 52 53 52 52 49 48 58 53 50 53 56 55 59 56 58 57 55 55 56 55 55 56 57 58 60 63 61 60 63 67 67 69 69 69 67 63 62 59 58 61 66 71 74
45 45 53 57 57 53 53 55 53 54 56 55 54 57 58 59 59 59 58 58 58 58 57 59 60 59 58 56 54 54 57 60 60 56 56 54 50 52 56 61 65 71 75 77
45 41 43 48 57 57 57 55 54 53 54 56 56 58 60 60 60 61 61 61 61 61 61 60 56 56 53 46 43 43 42 39 40 43 41 42 48 52 57 62 69 75 76 79
50 46 42 42 45 50 57 56 57 58 59 61 60 60 61 62 63 64 65 65 64 64 61 56 57 49 45 37 35 32 28 30 32 31 37 42 46 52 57 64 70 72 75 81
48 44 43 40 42 45 45 48 55 60 61 61 63 64 66 66 67 68 66 65 63 61 59 55 49 41 33 31 28 22 23 23 27 31 37 42 48 55 57 63 66 71 78 83
45 42 40 41 41 41 40 42 45 48 51 53 54 56 56 56 54 53 49 46 44 43 44 42 36 30 27 26 22 19 19 23 27 33 38 46 53 55 59 63 70 75 79 70
41 41 39 41 40 38 34 35 37 39 41 41 43 43 41 39 37 34 35 34 35 34 32 30 28 26 25 22 21 19 21 24 29 33 42 49 53 57 61 66 70 77 68 57
38 38 39 39 37 35 32 32 34 33 32 33 32 31 30 27 26 27 26 26 27 27 26 26 25 27 24 23 18 17 21 25 29 36 44 49 54 57 65 66 70 70 57 44
38 39 39 36 35 34 32 32 31 29 28 24 21 21 22 21 21 22 24 26 24 23 25 26 27 25 25 19 16 18 20 24 30 37 43 49 52 57 67 66 66 62 49 39
38 40 37 34 32 32 32 32 27 25 20 18 20 21 19 20 21 21 22 22 22 25 26 25 26 25 18 18 19 17 20 26 31 38 44 48 51 58 65 65 65 57 45 36

GFSCGP_250_spd_105.txt.gz
Wind_Speed
70 69 75 69 65 63 66 70 74 74 75 76 76 78 85 89 91 90 97 95 97 101 96 95 96 98 100 106 109 107 112 110 109 105 103 101 100 100 97 95 95 94 95 95
69 71 71 68 68 66 67 72 73 70 71 73 76 80 87 86 84 88 100 101 101 100 104 100 99 97 96 97 100 106 110 108 108 110 108 106 107 102 100 98 99 102 104 100
66 70 65 66 67 68 69 73 69 65 66 68 72 79 75 73 75 82 95 99 103 101 104 105 104 102 100 97 97 98 99 104 108 110 111 108 109 110 109 108 108 108 108 106
63 64 61 63 66 66 67 67 59 58 59 60 66 70 69 65 58 69 83 94 102 100 101 101 102 104 103 101 100 99 97 97 98 104 109 110 111 111 111 108 108 108 109 109
56 61 58 59 65 63 66 56 53 52 51 53 55 58 57 56 51 63 74 84 96 101 99 100 102 107 104 103 103 99 98 100 100 102 102 104 103 103 106 109 110 110 107 110
53 56 52 58 58 60 60 50 50 48 45 46 46 46 40 40 35 45 58 74 87 99 109 107 110 110 102 105 103 101 100 100 102 102 101 100 100 100 99 101 102 103 102 104
52 53 56 53 54 55 53 48 48 44 40 43 42 36 31 28 23 25 40 54 69 81 93 108 110 112 109 106 104 104 105 93 99 107 104 101 101 100 98 95 94 96 100 102
44 54 54 53 51 54 50 47 46 44 38 34 32 28 29 25 24 22 22 28 42 59 73 86 101 102 104 103 108 106 99 104 107 108 106 107 104 101 98 97 96 99 100 102
42 50 55 52 52 53 50 45 47 42 40 35 29 26 28 27 24 22 21 23 24 29 39 65 77 88 93 92 100 102 106 102 102 101 106 109 108 107 102 100 102 103 102 101
40 42 53 54 54 53 50 46 43 42 39 35 31 26 28 26 22 20 19 20 23 26 31 36 47 62 75 83 87 95 98 101 105 107 108 107 105 109 103 103 102 101 102 98
40 38 49 55 52 51 48 46 43 42 39 36 35 31 28 26 25 21 19 21 23 25 28 32 36 43 52 64 75 84 93 99 101 102 104 103 104 101 98 96 93 93 93 95
39 39 43 54 54 51 48 48 45 42 42 39 37 37 38 32 29 25 20 17 18 22 24 28 32 36 40 45 52 58 65 71 75 81 82 81 81 82 81 79 83 86 89 90
40 41 40 52 54 54 50 48 47 46 43 42 40 42 40 37 32 31 28 23 24 25 25 26 29 33 38 41 44 49 53 57 60 64 68 71 72 73 74 77 80 81 82 85
41 42 40 44 56 56 52 50 50 48 47 48 45 45 43 41 38 36 35 34 32 32 34 35 35 34 34 36 39 41 44 48 52 57 60 62 64 66 66 69 71 72 76 79
41 40 40 40 52 53 54 54 50 50 51 49 49 47 46 46 46 44 42 43 42 43 41 40 40 41 42 43 44 45 48 50 51 53 55 57 58 60 63 67 70 75 78 80
41 40 42 37 42 52 53 51 56 53 49 48 50 52 53 48 47 48 49 47 45 44 43 42 41 42 43 44 45 47 50 53 54 56 58 61 63 68 70 72 74 78 82 84
42 40 41 38 36 41 49 57 52 54 56 56 56 59 56 55 52 51 50 50 50 51 50 49 49 50 50 50 53 56 58 59 60 62 63 61 64 68 71 73 77 78 78 79
42 40 38 41 38 37 42 51 59 57 55 54 56 57 56 57 56 55 53 53 53 54 53 53 53 55 55 54 54 57 59 60 63 59 55 55 58 63 67 70 69 69 65 64
46 44 43 42 42 40 44 46 46 49 54 55 54 53 54 54 55 56 57 57 57 57 57 57 57 56 56 55 56 58 59 59 54 50 45 44 45 47 49 52 53 55 59 65
46 44 43 44 42 41 39 42 49 53 51 50 52 53 55 56 57 58 59 59 60 61 61 61 59 56 55 55 56 58 54 49 42 39 33 31 32 37 41 46 50 55 62 68
42 43 42 44 43 41 37 36 37 41 47 53 56 55 56 56 57 57 58 59 59 59 59 58 56 56 57 58 56 50 45 37 34 29 26 27 29 36 41 46 51 57 66 73
40 40 44 44 45 45 41 41 38 36 39 42 45 48 52 55 56 57 57 58 59 60 59 58 57 58 59 57 50 40 31 28 26 23 22 26 32 37 43 49 54 63 68 73
42 42 43 44 42 41 38 37 38 36 37 38 38 39 40 42 43 44 43 42 43 43 41 40 40 40 37 35 31 26 26 26 23 20 23 29 33 39 44 52 56 61 68 75
42 42 41 43 42 40 38 37 36 36 34 33 31 32 34 34 33 33 33 31 30 30 28 27 26 26 27 25 24 27 26 22 18 19 25 29 35 40 47 51 53 62 69 71
42 40 39 39 38 37 36 33 33 32 30 27 27 28 29 28 26 25 23 22 21 21 20 20 21 22 23 24 27 25 20 15 15 21 25 31 36 41 52 52 55 62 69 63
41 38 35 35 34 33 32 31 30 28 27 25 26 26 23 20 19 18 17 17 18 17 18 19 21 23 26 28 25 20 16 16 18 22 26 32 39 43 53 52 59 62 68 55

GFSCGP_250_spd_111.txt.gz
Wind_Speed
57 60 57 71 81 83 83 81 79 79 81 74 77 76 78 75 72 71 71 74 75 76 81 83 88 91 90 95 97 102 107 107 105 105 103 102 102 106 109 108 105 105 99 91
55 54 62 61 66 79 81 80 82 83 79 75 79 81 82 79 76 75 72 72 73 75 76 79 81 83 82 83 88 95 95 97 101 104 109 105 108 108 108 109 107 108 106 101
59 57 59 56 57 62 76 81 84 83 81 76 77 77 81 81 80 78 75 75 77 78 78 80 81 82 82 83 84 89 87 89 92 95 99 98 97 102 102 102 106 109 107 105
63 63 55 56 53 59 64 79 82 82 81 79 82 80 77 75 75 73 73 72 73 75 76 79 80 79 82 82 82 83 85 86 91 95 93 94 96 98 96 98 100 100 102 105
63 62 61 58 57 56 61 66 81 77 79 80 80 82 83 75 73 71 70 71 71 72 73 75 76 75 82 84 87 90 92 94 99 98 98 99 97 92 94 98 100 97 99 98
63 64 64 58 59 56 58 61 64 74 78 77 77 79 80 80 76 72 71 73 74 74 76 77 82 78 85 89 92 95 100 101 102 109 107 104 105 101 99 98 100 101 100 95
60 63 62 64 63 60 58 55 58 67 69 71 72 72 76 73 73 73 74 76 75 73 76 77 81 85 89 95 104 106 109 113 112 115 115 111 113 112 104 100 99 100 102 93
62 61 57 52 53 57 57 55 53 56 66 64 71 68 72 71 65 66 69 70 69 70 71 73 78 81 78 81 92 96 108 116 119 123 122 119 117 115 113 107 104 101 101 103
56 56 54 51 49 49 52 49 50 53 62 67 65 68 71 63 63 63 62 63 63 61 65 69 72 68 67 60 64 75 85 94 103 113 117 121 117 112 112 107 100 98 101 100
54 58 57 52 53 49 48 50 50 52 57 57 59 62 63 63 61 59 57 58 57 56 60 63 58 56 48 43 41 49 57 64 75 85 98 103 104 106 105 107 108 104 100 101
56 56 54 52 51 50 48 50 46 53 55 54 56 59 63 54 58 56 55 52 52 52 52 53 47 43 33 28 28 33 42 53 64 66 71 79 83 88 97 101 101 103 98 100
55 54 53 50 53 49 47 48 47 50 51 52 56 57 60 53 57 54 53 49 50 47 46 42 38 37 29 22 19 17 20 28 40 51 59 66 72 75 81 87 98 100 94 93
54 52 50 51 48 49 47 48 47 48 51 51 56 56 53 52 54 53 50 47 47 47 44 41 39 29 23 22 20 19 17 16 19 24 29 37 47 56 67 78 87 94 98 101
52 50 49 48 49 52 48 48 47 45 55 55 57 59 61 58 56 54 52 47 47 47 45 42 39 33 28 26 23 19 18 17 18 21 23 24 27 32 38 46 54 61 65 70
53 50 50 48 49 51 49 48 48 48 54 56 58 62 56 60 57 54 52 51 50 48 46 44 42 38 34 32 29 26 25 24 25 25 25 25 27 29 31 33 36 39 42 46
52 50 50 48 53 52 47 49 48 48 50 56 55 57 63 62 59 56 53 51 49 49 47 46 44 43 41 39 36 35 33 33 32 33 33 33 34 35 36 37 38 41 45 51
48 47 43 50 51 49 48 48 48 50 47 56 57 59 62 60 58 58 56 55 51 50 51 50 48 46 45 44 42 41 40 38 37 37 36 37 38 39 40 42 45 49 54 58
55 43 39 48 49 48 45 46 49 49 47 51 56 57 59 61 61 61 61 60 58 58 57 55 54 52 50 48 47 46 45 43 42 41 42 42 44 46 49 50 51 53 58 63
53 50 54 52 49 44 46 46 47 48 46 46 56 60 61 57 61 59 61 62 61 60 59 59 58 56 54 53 53 52 50 48 46 46 47 48 48 50 50 51 53 56 60 61
51 53 55 50 48 47 42 47 46 47 45 45 46 57 63 61 60 58 62 61 61 61 61 60 60 61 61 60 59 58 55 53 51 49 50 51 51 51 51 53 54 57 57 46
54 50 47 49 43 42 41 45 44 44 44 42 37 41 45 54 62 65 67 67 67 67 67 66 66 67 69 67 65 61 59 55 53 53 53 53 53 53 52 52 52 51 39 37
57 55 55 52 46 40 42 41 41 41 39 40 38 34 33 35 41 49 57 64 68 70 71 71 71 71 70 68 66 63 60 56 55 56 57 55 52 50 49 49 45 34 35 40
59 56 56 54 48 45 42 39 38 37 36 40 39 38 36 34 35 39 43 49 55 60 63 65 67 68 67 67 67 66 65 63 59 55 53 49 46 47 45 36 30 34 37 40
58 56 54 56 54 49 45 40 36 37 38 38 39 40 39 36 35 37 39 41 42 44 45 47 48 48 49 48 49 48 47 47 49 51 49 45 41 33 26 26 31 35 36 42
59 56 54 60 58 52 46 37 39 41 40 39 37 37 36 37 38 39 37 33 32 33 33 32 32 31 30 30 30 28 28 27 27 27 26 23 21 20 21 27 30 33 38 45
51 48 51 51 52 49 42 40 40 39 37 37 37 35 34 36 37 35 30 29 27 26 24 22 20 19 18 18 17 17 17 17 17 16 19 20 17 17 23 28 28 30 41 47

GFSCGP_250_spd_117.txt.gz
Wind_Speed
65 64 57 67 63 60 60 65 71 76 88 90 84 81 83 84 85 85 87 89 94 98 101 105 110 101 99 103 106 102 99 100 103 100 99 96 97 93 88 48 48 45 51 45
68 59 63 68 68 63 63 57 60 68 74 88 87 84 81 79 81 82 82 79 78 82 90 95 100 101 95 95 96 100 102 102 104 107 106 103 100 96 96 93 75 64 65 53
74 64 73 69 71 62 60 54 55 60 66 74 88 86 80 81 82 81 79 77 76 78 79 80 84 83 86 88 92 93 98 101 102 105 105 106 92 91 95 103 102 94 90 91
73 71 70 68 68 62 56 58 58 60 63 65 72 81 82 87 85 82 78 74 74 75 77 76 77 75 75 77 79 84 89 96 100 101 101 107 110 105 101 100 106 108 112 108
66 66 64 67 66 63 57 61 59 61 63 58 59 65 74 87 85 83 81 80 75 72 72 71 72 72 73 74 76 76 76 80 85 91 101 108 110 112 110 112 114 116 117 121
59 61 62 63 68 63 63 64 60 60 60 53 53 54 60 71 83 84 83 80 78 76 74 70 68 67 67 68 68 71 72 74 76 80 85 87 90 96 104 112 120 125 126 124
51 55 60 66 66 64 61 61 61 57 55 47 42 43 50 59 66 76 83 83 81 75 73 71 69 67 70 71 73 73 72 73 74 75 77 77 79 83 88 92 98 103 109 111
54 56 56 58 60 60 58 58 52 47 48 51 53 42 47 52 55 59 70 77 79 78 76 74 69 68 67 67 69 68 68 72 75 76 77 78 80 81 84 89 96 101 105 108
51 53 58 62 61 61 59 52 52 50 56 54 51 47 48 45 43 48 58 66 68 71 77 75 73 71 71 70 69 69 69 69 69 70 72 75 77 81 85 90 94 100 105 108
47 59 59 59 63 65 59 56 56 54 49 45 48 49 46 46 44 41 51 58 53 55 61 61 62 69 70 71 70 70 70 72 72 71 73 75 77 80 86 93 98 102 106 110
47 53 63 64 65 61 57 58 57 55 50 47 48 45 48 47 47 47 46 46 43 45 52 58 59 62 65 64 65 66 68 68 66 64 65 68 72 79 83 84 87 89 94 99
44 49 54 55 57 57 56 57 55 52 45 38 43 40 42 40 41 42 40 37 35 28 43 47 49 51 55 57 58 63 65 64 62 61 61 65 68 67 66 64 64 66 68 72
43 40 49 50 53 50 48 46 47 49 46 40 35 36 42 39 37 31 32 27 10 35 49 44 52 46 47 53 58 58 53 52 53 56 59 59 57 56 53 49 42 35 36 41
34 34 36 42 38 39 42 43 42 44 37 37 31 37 39 34 37 38 31 29 53 50 48 47 53 51 58 58 56 56 53 54 56 56 54 53 52 50 44 41 38 35 33 31
43 34 35 35 38 40 45 47 43 42 38 40 35 43 39 38 40 35 32 33 54 52 50 56 48 39 50 50 50 50 51 54 55 54 51 51 49 47 44 42 40 39 36 34
37 36 37 41 41 41 41 40 40 36 39 44 39 41 37 39 40 36 35 37 44 57 68 66 63 60 46 49 51 53 53 55 54 54 51 50 49 46 42 41 39 38 38 36
36 39 40 41 36 34 35 33 34 38 45 45 41 40 42 45 35 33 36 44 44 57 66 63 61 61 60 56 55 56 55 54 55 55 54 52 51 49 48 48 45 41 41 41
39 40 42 36 32 23 25 25 42 43 44 43 41 38 37 29 31 31 36 43 54 65 67 67 66 66 64 66 60 58 57 56 56 57 55 53 53 52 51 51 47 45 45 45
45 41 41 43 35 37 38 43 41 40 45 43 36 34 36 38 39 40 42 45 50 49 50 55 56 57 59 60 61 63 63 63 61 59 59 58 57 55 54 52 50 49 49 51
42 45 46 47 46 52 54 54 46 39 44 43 39 37 37 42 49 47 48 48 50 49 48 51 54 56 57 60 63 64 64 64 63 63 62 61 59 57 56 55 54 53 53 53
39 42 46 52 56 55 57 62 57 50 42 41 41 40 41 43 44 48 49 51 50 52 55 58 61 64 64 64 64 64 66 67 69 67 64 62 60 57 57 57 55 53 56 54
49 44 46 55 53 53 50 50 47 39 42 45 42 40 38 40 43 44 45 47 50 51 52 54 56 58 60 64 67 69 72 74 74 73 70 68 64 64 62 61 58 56 51 50
49 44 45 51 52 53 51 49 48 47 46 47 43 39 39 41 43 42 43 44 46 47 47 47 48 48 47 48 52 54 53 53 53 54 54 55 55 55 54 57 55 53 50 48
53 51 46 49 50 48 50 52 51 48 42 38 39 39 40 43 43 42 44 46 47 46 47 47 47 48 49 52 52 49 47 42 40 38 37 37 38 39 40 40 40 39 36 34
57 54 54 51 51 52 51 48 45 42 44 46 46 45 41 42 42 42 43 43 45 45 46 48 47 47 47 47 42 39 35 32 28 25 24 24 24 23 23 23 23 21 20 17
54 51 54 57 56 53 50 47 44 38 35 36 33 36 37 41 38 35 36 39 41 41 41 40 39 40 39 35 32 28 23 20 17 16 14 14 12 9 7 8 9 10 7 13

GFSCGP_250_spd_123.txt.gz
Wind_Speed
71 67 52 60 61 62 65 63 66 64 69 59 62 72 86 98 104 108 111 112 111 111 108 109 112 109 105 104 105 108 108 104 102 98 95 91 92 90 93 95 83 80 81 86
72 54 67 72 70 65 67 65 66 70 68 61 54 55 66 80 86 91 94 98 101 106 109 110 107 110 108 106 105 102 105 107 107 105 103 101 98 94 94 96 98 93 89 89
82 71 79 78 73 67 64 62 66 69 73 68 61 51 56 64 70 78 84 90 93 94 100 106 108 106 104 106 107 105 102 101 103 105 106 107 106 104 103 105 106 108 109 110
93 85 78 77 75 69 64 65 67 72 75 64 65 57 53 57 60 63 77 86 88 92 91 92 93 100 101 101 102 102 102 102 102 101 102 109 114 109 106 106 108 109 110 113
87 91 80 78 68 70 64 73 72 73 69 68 60 55 56 54 55 61 68 77 82 89 93 90 87 85 86 88 92 95 99 104 105 103 104 105 105 106 107 108 109 109 111 110
90 91 87 77 82 79 74 79 75 74 72 62 55 52 56 55 55 59 62 68 76 82 89 89 85 80 78 78 79 81 83 87 91 95 100 104 106 107 110 111 108 103 103 105
85 84 82 84 83 84 77 79 78 78 71 43 61 54 53 56 57 56 59 64 71 74 76 83 84 81 79 77 76 76 76 75 75 77 78 78 80 83 85 87 90 94 93 93
75 82 82 80 76 75 73 78 71 66 58 53 67 53 54 55 56 56 52 55 63 65 68 72 81 83 80 77 74 73 70 70 70 72 73 71 71 75 77 79 78 78 78 80
63 70 79 79 80 80 78 77 72 73 70 67 70 59 54 55 59 55 48 46 52 53 54 59 63 72 77 77 76 75 72 70 69 69 70 71 72 72 71 73 72 70 71 73
56 62 72 77 80 80 77 77 79 75 72 64 64 58 52 60 56 49 42 39 41 41 42 47 51 53 59 63 70 72 65 57 72 75 74 72 74 72 70 73 75 75 72 71
53 56 64 74 82 80 75 76 76 69 65 58 57 55 55 53 47 39 38 43 41 39 39 35 37 43 43 44 48 54 65 60 75 74 74 73 74 77 77 75 71 72 73 74
48 56 63 63 61 67 68 67 65 61 58 55 57 58 55 49 43 41 44 47 41 37 33 31 29 33 41 43 48 54 59 70 74 71 72 71 71 71 73 75 77 78 78 77
46 53 56 59 63 63 61 62 61 57 56 55 58 55 51 46 39 39 42 41 43 41 36 35 36 38 38 38 44 50 58 61 63 64 69 72 74 77 80 80 80 78 75 73
40 47 52 54 51 54 55 56 53 53 52 52 52 49 48 44 41 39 47 49 43 40 41 39 39 47 47 44 50 52 56 60 61 60 59 61 63 67 71 71 70 71 69 67
38 39 43 47 49 52 55 56 55 53 53 49 47 46 43 42 40 41 44 46 50 47 48 48 47 52 42 43 50 56 58 55 54 54 50 50 53 56 58 59 60 60 60 60
35 36 37 43 48 53 57 60 59 58 55 47 45 43 42 42 39 38 38 42 47 50 51 50 57 55 53 54 56 60 59 59 55 48 47 47 49 54 61 60 61 61 63 65
30 33 37 41 46 51 54 53 55 55 51 45 40 42 44 41 38 37 41 46 48 49 43 43 50 60 61 61 59 59 62 62 63 60 58 56 50 54 55 62 66 66 66 65
29 31 35 35 42 45 46 45 48 49 45 43 42 43 43 37 34 39 42 44 44 41 37 43 51 57 67 65 68 62 62 65 64 63 61 56 59 59 61 67 69 71 71 70
31 28 34 34 36 41 41 38 41 42 41 41 41 42 42 42 42 43 39 39 38 37 36 39 43 51 54 57 62 62 67 63 63 65 64 67 71 75 74 75 76 74 70 69
30 28 32 32 35 34 36 37 40 42 42 43 42 44 45 45 39 33 31 35 36 34 37 40 41 44 51 55 63 66 67 68 72 72 71 74 75 73 72 74 76 72 73 74
26 36 34 34 35 35 36 36 35 35 37 40 42 43 42 36 31 33 35 34 34 36 36 39 41 42 44 46 52 62 65 67 69 73 69 73 70 69 69 70 67 67 67 68
38 38 39 36 40 38 37 37 37 38 38 39 39 39 35 33 32 31 34 36 35 35 34 35 38 42 46 50 54 56 59 65 72 72 71 70 69 66 65 62 60 61 60 58
37 42 43 46 42 42 39 39 39 39 40 38 34 35 32 30 30 26 20 25 31 33 33 39 40 43 47 50 53 54 55 58 59 58 58 59 59 58 56 53 49 46 45 45
33 42 36 39 37 36 40 36 38 33 30 25 28 28 25 31 28 23 24 28 32 37 43 42 40 42 43 47 50 52 50 50 51 51 51 50 47 44 38 37 35 31 28 27
38 39 32 36 44 42 43 43 45 41 36 28 26 29 36 37 30 30 32 36 39 45 49 50 48 45 41 42 45 45 44 47 43 41 39 37 33 28 26 24 21 16 13 11
34 44 42 46 43 42 40 40 38 38 41 38 37 33 33 35 40 44 42 40 48 46 53 48 48 46 44 43 40 40 40 38 35 33 30 24 20 17 15 12 5 3 6 9